{"data":{"norad_id":61788,"intl_designator":"2024-199BF","name":"SITRO-AIS 45","alt_names":[],"object_type":"PAYLOAD","status":"ACTIVE","operator":null,"country":"CIS","launch_date":"2024-11-04","launch_site_code":"VOSTO","launch_vehicle":null,"mission":null,"orbit_class":"UNKNOWN","rcs_meters":null,"size_class":null,"mass_kg":null,"dimensions":null,"purposes":[],"wikipedia_slug":null,"has_3d_model":false,"image_url":null,"decayed_at":null,"tle_current":{"epoch":"2026-09-22T22:13:13.349280Z","epoch_age_seconds":93401,"freshness":"FRESH","line1":"1 61788U 24199BF  26265.92584895  .00065047  00000+0  57044-3 0  9990","line2":"2 61788  97.2688 144.6632 0001948 277.7054  82.3987 15.68655507149674","mean_motion":15.68655507,"eccentricity":0.0001948,"inclination_deg":97.2688,"raan_deg":144.6632,"arg_perigee_deg":277.7054,"mean_anomaly_deg":82.3987,"bstar":0.00057044,"rev_number":14967,"period_min":91.798358120959,"perigee_km":361.43287201593,"apogee_km":364.05912003118,"semimajor_km":6740.8829960236,"source":"CELESTRAK","updated_at":"2026-09-23T09:00:21.041171Z"}}}